AST,Max TemperatureF,Mean TemperatureF,Min TemperatureF,Max Dew PointF,MeanDew PointF,Min DewpointF,Max Humidity, Mean Humidity, Min Humidity, Max Sea Level PressureIn, Mean Sea Level PressureIn, Min Sea Level PressureIn, Max VisibilityMiles, Mean VisibilityMiles, Min VisibilityMiles, Max Wind SpeedMPH, Mean Wind SpeedMPH, Max Gust SpeedMPH,PrecipitationIn, CloudCover, Events, WindDirDegrees
2011-10-1,89,82,75,81,78,73,94,80,70,29.92,29.87,29.83,6,6,5,12,3,,0.00,5,Rain-Thunderstorm,59
2011-10-2,89,83,77,81,79,73,94,80,70,30.01,29.94,29.89,6,6,6,15,5,,0.00,4,,78
2011-10-3,89,83,77,79,77,73,94,78,66,30.04,29.99,29.92,6,6,6,17,6,,0.00,2,,100
2011-10-4,89,81,73,79,77,72,94,79,66,30.01,29.97,29.92,6,6,6,12,5,,0.00,2,,79
2011-10-5,89,82,75,79,76,73,94,79,62,29.98,29.92,29.86,6,6,6,14,5,,0.00,2,,91
2011-10-6,91,82,73,81,77,73,100,79,66,29.98,29.88,29.83,6,6,6,16,4,,0.00,5,,100
2011-10-7,89,82,75,79,76,72,94,77,66,29.98,29.89,29.83,6,6,6,12,4,,0.00,3,,83
2011-10-8,87,82,77,77,74,70,89,75,66,29.92,29.89,29.83,6,6,6,15,5,,0.00,6,,135
2011-10-9,87,82,78,81,76,73,89,78,70,29.92,29.88,29.83,6,6,6,14,3,,0.00,6,,120
2011-10-10,91,84,75,79,77,73,94,76,66,29.92,29.87,29.83,6,6,6,17,5,,0.00,4,,114
2011-10-11,89,83,77,81,79,75,94,83,70,29.92,29.87,29.83,6,6,6,12,3,,0.00,5,Thunderstorm,100
2011-10-12,91,84,77,81,78,75,100,82,66,29.95,29.89,29.83,6,6,6,14,5,,0.00,4,Thunderstorm,92
2011-10-13,89,81,73,81,77,73,100,84,70,29.92,29.87,29.83,6,6,4,14,4,,0.00,4,Rain-Thunderstorm,74
2011-10-14,89,82,75,79,77,73,100,80,70,29.92,29.89,29.86,6,6,6,12,5,,0.00,5,,150
2011-10-15,91,83,75,82,78,73,94,82,75,29.98,29.93,29.89,6,6,6,17,6,,0.00,3,,91
2011-10-16,89,81,73,77,75,72,100,79,62,29.98,29.94,29.89,6,6,6,17,4,,0.00,2,,85
2011-10-17,87,81,75,79,76,72,94,82,74,29.95,29.90,29.83,6,6,6,13,5,,0.00,3,,93
2011-10-18,91,84,77,79,77,73,94,77,62,29.95,29.89,29.83,6,6,6,14,4,,0.00,2,,101
2011-10-19,91,82,73,79,77,73,100,76,62,30.01,29.91,29.83,6,6,6,17,5,,0.00,1,Thunderstorm,97
2011-10-20,89,82,75,79,76,72,94,77,55,30.01,29.95,29.89,6,6,6,17,6,,0.00,1,,89
2011-10-21,87,80,73,79,75,72,94,81,66,29.98,29.91,29.86,6,6,5,12,4,,0.00,3,Rain,81
2011-10-22,87,80,73,77,74,72,94,79,62,29.86,29.84,29.80,6,6,6,13,3,,0.00,4,,59
2011-10-23,89,82,75,79,77,72,94,81,70,29.95,29.90,29.86,6,6,4,14,5,,0.00,2,Rain-Thunderstorm,79
2011-10-24,89,82,75,79,77,73,94,80,70,29.98,29.94,29.89,6,6,6,14,5,,0.00,1,,87
2011-10-25,89,82,75,79,77,73,94,78,70,29.98,29.94,29.89,6,6,3,12,4,,0.00,4,Rain,74
2011-10-26,84,78,73,81,77,72,94,89,84,29.95,29.91,29.83,6,6,4,12,3,,0.00,4,Rain-Thunderstorm,99
2011-10-27,89,82,75,81,77,75,100,83,70,29.95,29.87,29.80,6,6,6,17,5,,0.00,1,,96
2011-10-28,91,84,77,79,76,72,94,77,55,30.01,29.91,29.83,6,6,6,17,8,,0.00,2,,96
2011-10-29,89,83,77,79,77,73,94,78,66,29.98,29.93,29.89,6,6,6,14,6,,0.00,2,,104
2011-10-30,91,83,75,81,77,73,100,80,63,30.01,29.95,29.92,6,6,6,17,6,,0.00,1,,97
2011-10-31,89,81,73,77,75,72,94,78,66,30.01,29.95,29.89,6,6,6,15,6,,0.00,2,,95